Location: Newark
(44.3681°N, 100.3364°W)
Time: 06:31:40
(UTC+00:00)

S-56A Canister/Altair - Pass Details

Date: 01 March 2020
Orbit: 634 x 2498 km, 38.9° (Epoch: 07 April)

Event Time Altitude Azimuth Distance (km) Brightness Sun altitude
Rises 21:02:09 0° 284° (WNW) 6,055 12.4 30.9°
Reaches altitude 10° 21:06:20 10° 278° (W) 5,130 12.2 30.4°
Maximum altitude 21:19:45 41° 216° (SW) 3,186 12.8 28.9°
Drops below altitude 10° 21:31:37 10° 152° (SSE) 4,539 11.8 27.4°
Sets 21:35:06 0° 145° (SE) 5,316 11.9 27.0°
